CDT,Max TemperatureF,Mean TemperatureF,Min TemperatureF,Max Dew PointF,MeanDew PointF,Min DewpointF,Max Humidity, Mean Humidity, Min Humidity, Max Sea Level PressureIn, Mean Sea Level PressureIn, Min Sea Level PressureIn, Max VisibilityMiles, Mean VisibilityMiles, Min VisibilityMiles, Max Wind SpeedMPH, Mean Wind SpeedMPH, Max Gust SpeedMPH,PrecipitationIn, CloudCover, Events, WindDirDegrees
2013-8-1,88,72,55,70,63,54,96,81,43,30.10,30.01,29.86,10,6,1,13,4,18,0.22,3,Rain-Thunderstorm,223
2013-8-2,84,72,62,67,63,61,96,81,58,30.01,29.91,29.87,10,6,1,13,3,,0.00,2,,23
2013-8-3,79,70,61,62,58,54,93,70,45,30.17,30.11,30.04,10,9,5,10,5,,0.00,2,,14
2013-8-4,82,68,55,66,59,52,93,72,52,30.17,30.09,29.99,10,9,4,21,5,29,0.00,4,,140
2013-8-5,84,75,66,73,69,64,94,87,65,30.03,29.92,29.82,10,5,0,10,5,26,0.29,5,Fog-Rain-Thunderstorm,189
2013-8-6,89,77,66,76,69,65,100,88,59,29.94,29.84,29.77,10,4,0,13,3,16,0.17,5,Fog-Rain-Thunderstorm,302
2013-8-7,82,73,64,69,64,60,93,74,47,29.98,29.92,29.82,10,8,4,10,6,,0.00,0,,4
2013-8-8,82,70,60,68,63,57,93,79,52,30.01,29.99,29.94,10,8,4,7,1,,0.00,2,,191
2013-8-9,82,72,62,66,63,58,97,79,44,30.13,30.07,30.00,10,5,2,12,5,,0.01,4,,3
2013-8-10,82,68,55,66,60,53,94,76,49,30.19,30.13,30.04,10,7,2,10,4,,0.00,3,,178
2013-8-11,87,74,61,72,65,59,94,79,55,30.07,30.02,29.96,10,6,1,16,7,25,0.41,4,Rain-Thunderstorm,206
2013-8-12,84,74,64,67,65,60,97,79,43,30.07,30.02,29.99,10,6,0,9,5,,0.00,3,Fog,356
2013-8-13,81,70,59,61,58,56,93,73,46,30.16,30.11,30.07,9,7,4,7,4,,0.01,1,,4
2013-8-14,73,64,54,63,59,51,94,83,64,30.19,30.13,30.08,7,5,2,7,2,,0.40,5,Rain,102
2013-8-15,66,63,60,61,59,57,94,89,78,30.12,30.08,30.04,10,4,1,18,8,23,2.12,8,Rain,121
2013-8-16,75,68,62,62,59,57,93,78,61,30.17,30.14,30.10,10,9,5,12,4,21,0.00,7,,126
2013-8-17,80,68,55,62,57,54,96,83,48,30.20,30.15,30.09,10,5,0,12,3,,0.00,4,Fog,163
2013-8-18,80,66,51,66,56,49,100,84,50,30.16,30.11,30.03,10,4,0,13,3,21,0.00,0,Fog,184
2013-8-19,87,73,60,71,65,59,94,80,57,30.04,29.97,29.89,7,4,1,14,6,24,0.01,1,,160
2013-8-20,89,79,69,73,69,66,93,77,57,29.94,29.89,29.85,7,5,2,15,7,21,0.00,1,,182
2013-8-21,90,80,70,77,71,67,91,76,61,29.94,29.91,29.89,6,6,4,15,7,21,0.00,0,,170
2013-8-22,82,75,68,72,68,64,96,84,65,30.10,30.04,29.96,10,7,0,16,5,23,0.12,2,Fog-Rain-Thunderstorm,56
2013-8-23,89,76,64,75,68,63,94,84,57,30.08,30.03,29.94,7,4,2,13,2,17,0.00,3,,138
2013-8-24,91,82,72,75,72,69,91,75,57,30.02,29.98,29.94,7,6,4,17,9,26,0.08,0,Rain,151
2013-8-25,93,84,75,76,72,70,84,70,52,30.06,30.01,29.97,8,6,5,16,10,23,0.00,0,,170
2013-8-26,93,83,73,76,72,69,87,70,56,30.04,29.97,29.88,10,8,2,13,8,21,0.00,0,,177
2013-8-27,93,83,73,77,71,66,91,68,47,29.89,29.87,29.83,10,10,10,13,9,17,0.00,0,,194
2013-8-28,93,80,66,77,69,63,90,72,46,29.96,29.93,29.88,10,10,10,12,5,,0.00,0,,164
2013-8-29,95,80,64,78,71,62,93,78,50,29.98,29.92,29.85,10,10,6,9,3,,0.00,0,,163
2013-8-30,93,80,68,78,72,66,93,79,59,29.87,29.84,29.81,10,10,8,12,5,17,0.00,0,,1
2013-8-31,91,80,69,77,71,67,93,80,55,29.88,29.80,29.74,10,9,4,6,2,,0.01,0,,209